Location: Shepherdstown, WV
(39.4326°N, 77.8042°W)
Time: 20:16:37
(UTC-04:00)

Vanguard 1 Rocket - Pass Details

Date: 13 August 2021
Orbit: 650 x 4226 km, 34.3° (Epoch: 19 September)

Event Time Altitude Azimuth Distance (km) Brightness Sun altitude
Rises 07:16:32 0° 230° (SW) 7,848 11.6 9.2°
Reaches altitude 10° 07:21:39 10° 226° (SW) 7,092 11.5 10.2°
Maximum altitude 07:46:43 59° 155° (SSE) 4,452 11.3 15.0°
Drops below altitude 10° 08:06:55 10° 83° (E) 5,925 14.0 18.9°
Sets 08:10:40 0° 79° (E) 6,564 13.4 19.6°
